Tracking 22440 objects as of 27-Feb-2021
HD Live streaming from Space Station
objects crossing your sky now

SL-3 R/B

Track SL-3 R/B now!
10-day predictions


NORAD ID: 11289
Int'l Code: 1979-021B
Perigee: 806.3 km
Apogee: 915.7 km
Inclination: 81.2 °
Period: 102.0 minutes
Semi major axis: 7231 km
RCS: 6.216 m2 (large)
Launch date: March 1, 1979
Source: Commonwealth of Independent States (former USSR) (CIS)
Launch site: PLESETSK MISSILE AND SPACE COMPLEX (PKMTR)

Note: This is a ROCKET BODY
aabbcc
Your satellite tracking list
Your tracking list is empty




NASA's NSSDC Master Catalog

Two Line Element Set (TLE):
1 11289U 79021B   21057.87075877  .00000242  00000-0  12331-3 0  9995
2 11289  81.2453 286.3657 0075632   1.7311 358.4108 14.11618520161139
Source of the keplerian elements: AFSPC